| time (UTC) | temp C | wind direction | speed KPH | gust KPH | rain 1hr cm | rain 24hr cm | rain mn cm | humidity % | barometer mb |
| 20260509022353 | 13 | 127 | 0.0 | 0.0 | 0.00 | 0.00 | 0.00 | 90 | 1015.5 |
| 20260509021850 | 14 | 127 | 0.0 | 0.0 | 0.00 | 0.00 | 0.00 | 89 | 1015.4 |
| 20260509021347 | 14 | 127 | 0.0 | 0.0 | 0.00 | 0.00 | 0.00 | 89 | 1015.3 |
| 20260509020845 | 14 | 127 | 0.0 | 0.0 | 0.00 | 0.00 | 0.00 | 89 | 1015.5 |
| 20260509020343 | 14 | 127 | 0.0 | 0.0 | 0.00 | 0.00 | 0.00 | 88 | 1015.4 |
| 20260509015840 | 15 | 127 | 0.0 | 1.6 | 0.00 | 0.00 | 0.00 | 87 | 1015.4 |
| 20260509015338 | 15 | 110 | 0.0 | 0.0 | 0.00 | 0.00 | 0.00 | 86 | 1015.4 |
| 20260509014834 | 14 | 79 | 3.2 | 3.2 | 0.00 | 0.00 | 0.00 | 86 | 1015.3 |
| 20260509014331 | 14 | 187 | 0.0 | 0.0 | 0.00 | 0.00 | 0.00 | 87 | 1015.4 |
| 20260509013828 | 14 | 187 | 0.0 | 0.0 | 0.00 | 0.00 | 0.00 | 88 | 1015.4 |
| 20260509013325 | 14 | 187 | 0.0 | 0.0 | 0.00 | 0.00 | 0.00 | 87 | 1015.2 |
| 20260509012820 | 14 | 187 | 0.0 | 0.0 | 0.00 | 0.00 | 0.00 | 85 | 1014.9 |
| 20260509012317 | 14 | 187 | 0.0 | 0.0 | 0.00 | 0.00 | 0.00 | 86 | 1015.1 |
| 20260509011815 | 15 | 187 | 0.0 | 0.0 | 0.00 | 0.00 | 0.00 | 86 | 1015.0 |
| 20260509011312 | 15 | 187 | 0.0 | 0.0 | 0.00 | 0.00 | 0.00 | 87 | 1015.1 |
| 20260509010810 | 15 | 187 | 0.0 | 0.0 | 0.00 | 0.00 | 0.00 | 84 | 1015.0 |
| 20260509010307 | 15 | 187 | 0.0 | 0.0 | 0.00 | 0.00 | 0.00 | 83 | 1014.8 |
| 20260509005804 | 15 | 187 | 0.0 | 0.0 | 0.00 | 0.00 | 0.00 | 85 | 1015.0 |
| 20260509005306 | 15 | 187 | 0.0 | 0.0 | 0.00 | 0.00 | 0.00 | 83 | 1015.0 |
| 20260509004801 | 15 | 187 | 0.0 | 0.0 | 0.00 | 0.00 | 0.00 | 83 | 1015.1 |
| 20260509004258 | 15 | 187 | 0.0 | 0.0 | 0.00 | 0.00 | 0.00 | 81 | 1014.7 |
| 20260509003756 | 15 | 187 | 0.0 | 0.0 | 0.00 | 0.00 | 0.00 | 83 | 1014.9 |
| 20260509003254 | 15 | 187 | 0.0 | 0.0 | 0.00 | 0.00 | 0.00 | 81 | 1014.9 |
| 20260509002751 | 15 | 187 | 0.0 | 0.0 | 0.00 | 0.00 | 0.00 | 80 | 1014.7 |
| 20260509002248 | 15 | 187 | 0.0 | 0.0 | 0.00 | 0.00 | 0.00 | 79 | 1015.0 |
| 20260509001746 | 15 | 187 | 0.0 | 0.0 | 0.00 | 0.00 | 0.00 | 79 | 1014.9 |
| 20260509001241 | 16 | 187 | 0.0 | 0.0 | 0.00 | 0.00 | 0.00 | 79 | 1015.0 |
| 20260509000739 | 16 | 187 | 0.0 | 0.0 | 0.00 | 0.00 | 0.00 | 78 | 1014.8 |
| 20260509000236 | 16 | 187 | 0.0 | 0.0 | 0.00 | 0.00 | 0.00 | 79 | 1014.9 |
| 20260508235733 | 16 | 187 | 0.0 | 0.0 | 0.00 | 0.00 | 0.00 | 79 | 1014.9 |
| 20260508235230 | 16 | 187 | 0.0 | 0.0 | 0.00 | 0.00 | 0.00 | 77 | 1015.0 |
| 20260508234727 | 17 | 187 | 0.0 | 0.0 | 0.00 | 0.00 | 0.00 | 76 | 1014.6 |
| 20260508234224 | 17 | 187 | 0.0 | 0.0 | 0.00 | 0.00 | 0.00 | 75 | 1014.7 |
| 20260508233723 | 17 | 187 | 0.0 | 0.0 | 0.00 | 0.00 | 0.00 | 75 | 1014.8 |
| 20260508233221 | 17 | 187 | 0.0 | 0.0 | 0.00 | 0.00 | 0.00 | 72 | 1014.9 |
| 20260508232718 | 17 | 187 | 0.0 | 0.0 | 0.00 | 0.00 | 0.00 | 70 | 1014.9 |
| 20260508232214 | 18 | 187 | 0.0 | 0.0 | 0.00 | 0.00 | 0.00 | 69 | 1014.7 |
| 20260508231712 | 18 | 187 | 0.0 | 0.0 | 0.00 | 0.00 | 0.00 | 66 | 1014.7 |
| 20260508231209 | 18 | 187 | 0.0 | 0.0 | 0.00 | 0.00 | 0.00 | 62 | 1014.5 |
| 20260508230706 | 18 | 187 | 0.0 | 1.6 | 0.00 | 0.00 | 0.00 | 64 | 1014.8 |
| 20260508230202 | 18 | 187 | 0.0 | 0.0 | 0.00 | 0.00 | 0.00 | 61 | 1014.9 |
| 20260508225700 | 18 | 187 | 0.0 | 1.6 | 0.00 | 0.00 | 0.00 | 61 | 1014.9 |
| 20260508225156 | 18 | 188 | 1.6 | 3.2 | 0.00 | 0.00 | 0.00 | 60 | 1014.7 |
| 20260508224654 | 18 | 172 | 1.6 | 1.6 | 0.00 | 0.00 | 0.00 | 61 | 1015.0 |
| 20260508224151 | 19 | 163 | 1.6 | 1.6 | 0.00 | 0.00 | 0.00 | 60 | 1014.8 |
| 20260508223649 | 19 | 153 | 1.6 | 4.8 | 0.00 | 0.00 | 0.00 | 59 | 1014.8 |
| 20260508223146 | 19 | 162 | 1.6 | 3.2 | 0.00 | 0.00 | 0.00 | 58 | 1014.8 |
| 20260508222643 | 19 | 172 | 1.6 | 1.6 | 0.00 | 0.00 | 0.00 | 58 | 1014.8 |
| 20260508222140 | 19 | 178 | 3.2 | 4.8 | 0.00 | 0.00 | 0.00 | 58 | 1015.0 |
| 20260508221636 | 19 | 198 | 3.2 | 4.8 | 0.00 | 0.00 | 0.00 | 57 | 1014.8 |
| 20260508221132 | 20 | 150 | 4.8 | 6.4 | 0.00 | 0.00 | 0.00 | 56 | 1014.8 |
| 20260508220629 | 20 | 203 | 3.2 | 4.8 | 0.00 | 0.00 | 0.00 | 57 | 1014.7 |
| 20260508220126 | 20 | 195 | 1.6 | 4.8 | 0.00 | 0.00 | 0.00 | 57 | 1014.8 |
| 20260508215622 | 20 | 167 | 0.0 | 3.2 | 0.00 | 0.00 | 0.00 | 55 | 1014.7 |
| 20260508215119 | 20 | 164 | 1.6 | 3.2 | 0.00 | 0.00 | 0.00 | 56 | 1014.6 |
| 20260508214616 | 20 | 183 | 3.2 | 3.2 | 0.00 | 0.00 | 0.00 | 54 | 1014.7 |
| 20260508214113 | 20 | 191 | 1.6 | 3.2 | 0.00 | 0.00 | 0.00 | 54 | 1014.5 |
| 20260508213610 | 20 | 197 | 3.2 | 3.2 | 0.00 | 0.00 | 0.00 | 53 | 1014.7 |
| 20260508213106 | 20 | 192 | 3.2 | 6.4 | 0.00 | 0.00 | 0.00 | 56 | 1014.8 |
| 20260508212602 | 20 | 173 | 1.6 | 4.8 | 0.00 | 0.00 | 0.00 | 55 | 1014.8 |
| 20260508212059 | 20 | 200 | 3.2 | 3.2 | 0.00 | 0.00 | 0.00 | 52 | 1014.7 |
| 20260508211554 | 20 | 176 | 1.6 | 3.2 | 0.00 | 0.00 | 0.00 | 54 | 1014.7 |
| 20260508211051 | 20 | 170 | 1.6 | 3.2 | 0.00 | 0.00 | 0.00 | 53 | 1014.7 |
| 20260508210547 | 20 | 177 | 1.6 | 4.8 | 0.00 | 0.00 | 0.00 | 52 | 1014.8 |
| 20260508210045 | 20 | 183 | 3.2 | 4.8 | 0.00 | 0.00 | 0.00 | 53 | 1014.7 |
| 20260508205542 | 20 | 173 | 3.2 | 4.8 | 0.00 | 0.00 | 0.00 | 50 | 1015.0 |
| 20260508205038 | 20 | 163 | 1.6 | 4.8 | 0.00 | 0.00 | 0.00 | 51 | 1015.0 |
| 20260508204535 | 20 | 158 | 3.2 | 4.8 | 0.00 | 0.00 | 0.00 | 49 | 1014.7 |
| 20260508204031 | 20 | 199 | 3.2 | 3.2 | 0.00 | 0.00 | 0.00 | 49 | 1014.9 |
| 20260508203527 | 20 | 193 | 3.2 | 6.4 | 0.00 | 0.00 | 0.00 | 47 | 1015.0 |
| 20260508203023 | 20 | 108 | 1.6 | 6.4 | 0.00 | 0.00 | 0.00 | 48 | 1015.0 |
| 20260508202520 | 21 | 183 | 4.8 | 6.4 | 0.00 | 0.00 | 0.00 | 49 | 1015.1 |
| 20260508202017 | 21 | 134 | 1.6 | 3.2 | 0.00 | 0.00 | 0.00 | 48 | 1015.1 |
| 20260508201514 | 21 | 141 | 3.2 | 3.2 | 0.00 | 0.00 | 0.00 | 48 | 1015.3 |
| 20260508201010 | 20 | 163 | 3.2 | 6.4 | 0.00 | 0.00 | 0.00 | 48 | 1015.1 |
| 20260508200508 | 21 | 173 | 3.2 | 9.7 | 0.00 | 0.00 | 0.00 | 48 | 1015.4 |
| 20260508200002 | 21 | 195 | 3.2 | 3.2 | 0.00 | 0.00 | 0.00 | 47 | 1015.4 |
| 20260508195500 | 21 | 177 | 1.6 | 4.8 | 0.00 | 0.00 | 0.00 | 49 | 1015.5 |
| 20260508194956 | 21 | 149 | 6.4 | 9.7 | 0.00 | 0.00 | 0.00 | 46 | 1015.4 |
| 20260508194453 | 21 | 127 | 8.0 | 11.3 | 0.00 | 0.00 | 0.00 | 47 | 1015.4 |
| 20260508193950 | 22 | 193 | 1.6 | 6.4 | 0.00 | 0.00 | 0.00 | 45 | 1015.4 |
| 20260508193447 | 22 | 138 | 0.0 | 3.2 | 0.00 | 0.00 | 0.00 | 46 | 1015.5 |
| 20260508192943 | 21 | 271 | 0.0 | 1.6 | 0.00 | 0.00 | 0.00 | 43 | 1015.6 |
| 20260508192440 | 21 | 250 | 1.6 | 4.8 | 0.00 | 0.00 | 0.00 | 42 | 1015.8 |
| 20260508191937 | 21 | 276 | 4.8 | 6.4 | 0.00 | 0.00 | 0.00 | 44 | 1016.0 |
| 20260508191435 | 21 | 146 | 6.4 | 6.4 | 0.00 | 0.00 | 0.00 | 44 | 1016.0 |
| 20260508190931 | 21 | 204 | 4.8 | 6.4 | 0.00 | 0.00 | 0.00 | 46 | 1016.0 |
| 20260508190428 | 21 | 115 | 6.4 | 9.7 | 0.00 | 0.00 | 0.00 | 44 | 1016.0 |
| 20260508185924 | 21 | 203 | 8.0 | 11.3 | 0.00 | 0.00 | 0.00 | 44 | 1016.2 |
| 20260508185422 | 21 | 173 | 1.6 | 6.4 | 0.00 | 0.00 | 0.00 | 42 | 1016.2 |
| 20260508184919 | 21 | 213 | 8.0 | 11.3 | 0.00 | 0.00 | 0.00 | 43 | 1016.1 |
| 20260508184416 | 21 | 253 | 6.4 | 9.7 | 0.00 | 0.00 | 0.00 | 46 | 1016.3 |
| 20260508183913 | 21 | 253 | 3.2 | 4.8 | 0.00 | 0.00 | 0.00 | 45 | 1016.3 |
| 20260508183410 | 21 | 139 | 1.6 | 6.4 | 0.00 | 0.00 | 0.00 | 45 | 1016.3 |
| 20260508182905 | 21 | 61 | 3.2 | 6.4 | 0.00 | 0.00 | 0.00 | 44 | 1016.5 |
| 20260508182402 | 21 | 146 | 6.4 | 14.5 | 0.00 | 0.00 | 0.00 | 43 | 1016.7 |
| 20260508181857 | 21 | 160 | 8.0 | 11.3 | 0.00 | 0.00 | 0.00 | 49 | 1016.8 |
| 20260508181355 | 21 | 165 | 6.4 | 11.3 | 0.00 | 0.00 | 0.00 | 43 | 1016.9 |
| 20260508180852 | 20 | 155 | 0.0 | 3.2 | 0.00 | 0.00 | 0.00 | 50 | 1016.6 |
| 20260508180349 | 21 | 166 | 3.2 | 14.5 | 0.00 | 0.00 | 0.00 | 46 | 1016.9 |
| 20260508175844 | 21 | 182 | 6.4 | 6.4 | 0.00 | 0.00 | 0.00 | 47 | 1016.9 |
| 20260508175341 | 20 | 38 | 3.2 | 3.2 | 0.00 | 0.00 | 0.00 | 47 | 1017.0 |
| 20260508174840 | 20 | 98 | 4.8 | 12.9 | 0.00 | 0.00 | 0.00 | 49 | 1017.1 |
| 20260508174336 | 21 | 100 | 3.2 | 12.9 | 0.00 | 0.00 | 0.00 | 45 | 1017.2 |
| 20260508173833 | 20 | 160 | 1.6 | 4.8 | 0.00 | 0.00 | 0.00 | 47 | 1017.4 |
| 20260508173330 | 20 | 175 | 6.4 | 9.7 | 0.00 | 0.00 | 0.00 | 46 | 1017.1 |
| 20260508172826 | 20 | 169 | 0.0 | 6.4 | 0.00 | 0.00 | 0.00 | 50 | 1017.2 |
| 20260508172323 | 20 | 126 | 8.0 | 11.3 | 0.00 | 0.00 | 0.00 | 46 | 1017.2 |
| 20260508171820 | 21 | 211 | 1.6 | 4.8 | 0.00 | 0.00 | 0.00 | 46 | 1017.5 |
| 20260508171316 | 20 | 109 | 1.6 | 4.8 | 0.00 | 0.00 | 0.00 | 46 | 1017.5 |
| 20260508170813 | 20 | 36 | 1.6 | 3.2 | 0.00 | 0.00 | 0.00 | 51 | 1017.6 |
| 20260508170311 | 19 | 67 | 3.2 | 4.8 | 0.00 | 0.00 | 0.00 | 53 | 1017.7 |
| 20260508165808 | 19 | 126 | 4.8 | 9.7 | 0.00 | 0.00 | 0.00 | 53 | 1017.7 |
| 20260508165306 | 20 | 145 | 1.6 | 3.2 | 0.00 | 0.00 | 0.00 | 49 | 1017.7 |
| 20260508164801 | 19 | 327 | 3.2 | 6.4 | 0.00 | 0.00 | 0.00 | 50 | 1017.9 |
| 20260508164257 | 18 | 207 | 3.2 | 4.8 | 0.00 | 0.00 | 0.00 | 51 | 1018.1 |
| 20260508163755 | 19 | 141 | 6.4 | 11.3 | 0.00 | 0.00 | 0.00 | 51 | 1018.0 |
| 20260508163253 | 20 | 122 | 8.0 | 9.7 | 0.00 | 0.00 | 0.00 | 48 | 1018.2 |
| 20260508162748 | 20 | 219 | 6.4 | 9.7 | 0.00 | 0.00 | 0.00 | 47 | 1018.2 |
| 20260508162245 | 19 | 326 | 1.6 | 1.6 | 0.00 | 0.00 | 0.00 | 47 | 1018.3 |
| 20260508161743 | 20 | 165 | 3.2 | 9.7 | 0.00 | 0.00 | 0.00 | 52 | 1018.3 |
| 20260508161240 | 19 | 57 | 3.2 | 3.2 | 0.00 | 0.00 | 0.00 | 51 | 1018.4 |
| 20260508160737 | 19 | 197 | 0.0 | 1.6 | 0.00 | 0.00 | 0.00 | 49 | 1018.6 |
| 20260508160236 | 19 | 162 | 3.2 | 9.7 | 0.00 | 0.00 | 0.00 | 51 | 1018.6 |
| 20260508155732 | 18 | 167 | 1.6 | 1.6 | 0.00 | 0.00 | 0.00 | 52 | 1018.6 |
| 20260508155229 | 18 | 111 | 3.2 | 6.4 | 0.00 | 0.00 | 0.00 | 52 | 1018.6 |
| 20260508154726 | 18 | 157 | 8.0 | 11.3 | 0.00 | 0.00 | 0.00 | 51 | 1018.4 |
| 20260508154223 | 18 | 244 | 6.4 | 9.7 | 0.00 | 0.00 | 0.00 | 50 | 1018.6 |
| 20260508153720 | 19 | 80 | 4.8 | 6.4 | 0.00 | 0.00 | 0.00 | 51 | 1018.5 |
| 20260508153217 | 19 | 34 | 3.2 | 4.8 | 0.00 | 0.00 | 0.00 | 51 | 1018.8 |
| 20260508152714 | 18 | 116 | 6.4 | 6.4 | 0.00 | 0.00 | 0.00 | 50 | 1019.0 |
| 20260508152209 | 18 | 166 | 1.6 | 11.3 | 0.00 | 0.00 | 0.00 | 50 | 1019.1 |
| 20260508151706 | 18 | 164 | 3.2 | 9.7 | 0.00 | 0.00 | 0.00 | 50 | 1018.8 |
| 20260508151203 | 18 | 180 | 8.0 | 9.7 | 0.00 | 0.00 | 0.00 | 51 | 1019.1 |
| 20260508150659 | 19 | 190 | 4.8 | 6.4 | 0.00 | 0.00 | 0.00 | 51 | 1019.1 |
| 20260508150156 | 20 | 166 | 1.6 | 1.6 | 0.00 | 0.00 | 0.00 | 52 | 1019.0 |
| 20260508145652 | 18 | 160 | 0.0 | 1.6 | 0.00 | 0.00 | 0.00 | 54 | 1018.9 |
| 20260508145148 | 18 | 162 | 0.0 | 3.2 | 0.00 | 0.00 | 0.00 | 54 | 1018.6 |
| 20260508144646 | 17 | 89 | 1.6 | 3.2 | 0.00 | 0.00 | 0.00 | 56 | 1018.8 |
| 20260508144143 | 17 | 33 | 4.8 | 6.4 | 0.00 | 0.00 | 0.00 | 54 | 1018.7 |
| 20260508143641 | 17 | 59 | 1.6 | 6.4 | 0.00 | 0.00 | 0.00 | 54 | 1018.8 |
| 20260508143137 | 18 | 80 | 4.8 | 6.4 | 0.00 | 0.00 | 0.00 | 58 | 1018.7 |
| 20260508142634 | 17 | 82 | 3.2 | 6.4 | 0.00 | 0.00 | 0.00 | 57 | 1018.7 |
| 20260508142131 | 17 | 115 | 1.6 | 4.8 | 0.00 | 0.00 | 0.00 | 60 | 1018.8 |
| 20260508141627 | 17 | 109 | 1.6 | 4.8 | 0.00 | 0.00 | 0.00 | 61 | 1018.8 |
| 20260508141125 | 17 | 152 | 1.6 | 6.4 | 0.00 | 0.00 | 0.00 | 61 | 1018.8 |
| 20260508140622 | 17 | 46 | 3.2 | 4.8 | 0.00 | 0.00 | 0.00 | 59 | 1018.9 |
| 20260508140119 | 16 | 119 | 3.2 | 4.8 | 0.00 | 0.00 | 0.00 | 67 | 1018.8 |
| 20260508135614 | 16 | 125 | 1.6 | 3.2 | 0.00 | 0.00 | 0.00 | 68 | 1019.3 |
| 20260508135110 | 16 | 100 | 6.4 | 6.4 | 0.00 | 0.00 | 0.00 | 67 | 1019.0 |
| 20260508134608 | 16 | 111 | 1.6 | 4.8 | 0.00 | 0.00 | 0.00 | 68 | 1019.4 |
| 20260508134104 | 16 | 80 | 1.6 | 3.2 | 0.00 | 0.00 | 0.00 | 71 | 1019.3 |
| 20260508133601 | 15 | 103 | 1.6 | 1.6 | 0.00 | 0.00 | 0.00 | 73 | 1019.3 |
| 20260508133059 | 15 | 89 | 0.0 | 1.6 | 0.00 | 0.00 | 0.00 | 73 | 1019.4 |
| 20260508132556 | 15 | 106 | 0.0 | 1.6 | 0.00 | 0.00 | 0.00 | 76 | 1019.2 |
| 20260508132053 | 14 | 5 | 0.0 | 3.2 | 0.00 | 0.00 | 0.00 | 76 | 1019.3 |
| 20260508131548 | 13 | 60 | 1.6 | 3.2 | 0.00 | 0.00 | 0.00 | 77 | 1019.4 |
| 20260508131045 | 13 | 119 | 1.6 | 1.6 | 0.00 | 0.00 | 0.00 | 78 | 1019.3 |
| 20260508130542 | 13 | 135 | 1.6 | 1.6 | 0.00 | 0.00 | 0.00 | 79 | 1019.2 |
| 20260508130039 | 13 | 81 | 1.6 | 1.6 | 0.00 | 0.00 | 0.00 | 80 | 1019.3 |
| 20260508125534 | 12 | 106 | 1.6 | 1.6 | 0.00 | 0.00 | 0.00 | 84 | 1019.2 |
| 20260508125032 | 12 | 39 | 1.6 | 3.2 | 0.00 | 0.00 | 0.00 | 83 | 1019.1 |
| 20260508124530 | 12 | 97 | 1.6 | 3.2 | 0.00 | 0.00 | 0.00 | 83 | 1019.0 |
| 20260508124027 | 12 | 85 | 0.0 | 1.6 | 0.00 | 0.00 | 0.00 | 83 | 1018.9 |
| 20260508123526 | 12 | 107 | 0.0 | 1.6 | 0.00 | 0.00 | 0.00 | 85 | 1018.6 |
| 20260508123022 | 12 | 352 | 0.0 | 3.2 | 0.00 | 0.00 | 0.00 | 84 | 1018.6 |
| 20260508122519 | 12 | 58 | 0.0 | 1.6 | 0.00 | 0.00 | 0.00 | 85 | 1018.5 |
| 20260508122016 | 11 | 93 | 0.0 | 0.0 | 0.00 | 0.00 | 0.00 | 87 | 1018.5 |
| 20260508121514 | 11 | 95 | 1.6 | 1.6 | 0.00 | 0.00 | 0.00 | 88 | 1018.4 |
| 20260508121012 | 11 | 94 | 0.0 | 1.6 | 0.00 | 0.00 | 0.00 | 91 | 1018.3 |
| 20260508120508 | 11 | 35 | 0.0 | 1.6 | 0.00 | 0.00 | 0.00 | 95 | 1018.2 |
| 20260508120007 | 11 | 160 | 0.0 | 0.0 | 0.00 | 0.00 | 0.00 | 97 | 1018.2 |
| 20260508115504 | 11 | 160 | 0.0 | 0.0 | 0.00 | 0.00 | 0.00 | 97 | 1018.3 |
| 20260508115000 | 10 | 160 | 0.0 | 0.0 | 0.00 | 0.00 | 0.00 | 97 | 1018.1 |
| 20260508114457 | 10 | 160 | 0.0 | 0.0 | 0.00 | 0.00 | 0.00 | 97 | 1018.2 |
| 20260508113954 | 10 | 160 | 0.0 | 0.0 | 0.00 | 0.00 | 0.00 | 97 | 1018.1 |
| 20260508113452 | 10 | 160 | 0.0 | 1.6 | 0.00 | 0.00 | 0.00 | 97 | 1018.0 |
| 20260508112949 | 9 | 160 | 0.0 | 0.0 | 0.00 | 0.00 | 0.00 | 97 | 1017.8 |
| 20260508112445 | 8 | 160 | 0.0 | 0.0 | 0.00 | 0.00 | 0.00 | 97 | 1017.8 |
| 20260508111942 | 8 | 160 | 0.0 | 0.0 | 0.00 | 0.00 | 0.00 | 97 | 1017.7 |
| 20260508111439 | 8 | 160 | 0.0 | 1.6 | 0.00 | 0.00 | 0.00 | 97 | 1017.6 |
| 20260508110936 | 8 | 160 | 0.0 | 0.0 | 0.00 | 0.00 | 0.00 | 97 | 1017.4 |
| 20260508110434 | 8 | 160 | 0.0 | 0.0 | 0.00 | 0.00 | 0.00 | 97 | 1017.2 |
| 20260508105933 | 8 | 160 | 0.0 | 0.0 | 0.00 | 0.00 | 0.00 | 97 | 1017.0 |
| 20260508105430 | 8 | 160 | 0.0 | 0.0 | 0.00 | 0.00 | 0.00 | 97 | 1017.1 |
| 20260508104927 | 8 | 160 | 0.0 | 0.0 | 0.00 | 0.00 | 0.00 | 97 | 1016.8 |
| 20260508104425 | 8 | 160 | 0.0 | 0.0 | 0.00 | 0.00 | 0.00 | 97 | 1016.8 |
| 20260508103921 | 8 | 160 | 0.0 | 0.0 | 0.00 | 0.00 | 0.00 | 97 | 1016.7 |
| 20260508103418 | 8 | 160 | 0.0 | 0.0 | 0.00 | 0.00 | 0.00 | 97 | 1016.6 |
| 20260508102915 | 8 | 160 | 0.0 | 0.0 | 0.00 | 0.00 | 0.00 | 97 | 1016.5 |
| 20260508102414 | 8 | 159 | 0.0 | 1.6 | 0.00 | 0.00 | 0.00 | 97 | 1016.6 |
| 20260508101911 | 8 | 160 | 0.0 | 0.0 | 0.00 | 0.00 | 0.00 | 97 | 1016.3 |
| 20260508101408 | 8 | 160 | 0.0 | 0.0 | 0.00 | 0.00 | 0.00 | 97 | 1016.2 |
| 20260508100905 | 8 | 160 | 0.0 | 0.0 | 0.00 | 0.00 | 0.00 | 96 | 1016.2 |
| 20260508100404 | 8 | 160 | 0.0 | 0.0 | 0.00 | 0.00 | 0.00 | 96 | 1016.3 |
| 20260508095859 | 8 | 160 | 0.0 | 0.0 | 0.00 | 0.00 | 0.00 | 96 | 1016.2 |
| 20260508095357 | 8 | 159 | 0.0 | 0.0 | 0.00 | 0.00 | 0.00 | 96 | 1016.1 |
| 20260508094854 | 8 | 160 | 0.0 | 0.0 | 0.00 | 0.00 | 0.00 | 96 | 1016.2 |
| 20260508094351 | 8 | 160 | 0.0 | 0.0 | 0.00 | 0.00 | 0.00 | 96 | 1016.0 |
| 20260508093848 | 8 | 160 | 0.0 | 0.0 | 0.00 | 0.00 | 0.00 | 96 | 1016.0 |
| 20260508093345 | 8 | 159 | 0.0 | 0.0 | 0.00 | 0.00 | 0.00 | 96 | 1015.8 |
| 20260508092843 | 8 | 160 | 0.0 | 0.0 | 0.00 | 0.00 | 0.00 | 96 | 1015.8 |
| 20260508092340 | 8 | 160 | 0.0 | 0.0 | 0.00 | 0.00 | 0.00 | 96 | 1015.7 |
| 20260508091838 | 9 | 159 | 0.0 | 0.0 | 0.00 | 0.00 | 0.00 | 96 | 1015.7 |
| 20260508091334 | 9 | 159 | 0.0 | 1.6 | 0.00 | 0.00 | 0.00 | 96 | 1015.9 |
| 20260508090832 | 9 | 161 | 0.0 | 0.0 | 0.00 | 0.00 | 0.00 | 96 | 1015.6 |
| 20260508090331 | 9 | 161 | 0.0 | 1.6 | 0.00 | 0.00 | 0.00 | 96 | 1015.5 |
| 20260508085826 | 9 | 161 | 0.0 | 0.0 | 0.00 | 0.00 | 0.00 | 96 | 1015.6 |
| 20260508085323 | 9 | 161 | 1.6 | 1.6 | 0.00 | 0.00 | 0.00 | 96 | 1015.5 |
| 20260508084820 | 9 | 145 | 0.0 | 1.6 | 0.00 | 0.00 | 0.00 | 96 | 1015.5 |
| 20260508084317 | 9 | 142 | 0.0 | 0.0 | 0.00 | 0.00 | 0.00 | 96 | 1015.4 |
| 20260508083814 | 9 | 143 | 0.0 | 0.0 | 0.00 | 0.00 | 0.00 | 96 | 1015.7 |
| 20260508083311 | 9 | 143 | 0.0 | 0.0 | 0.00 | 0.00 | 0.00 | 96 | 1015.2 |
| 20260508082811 | 9 | 143 | 0.0 | 0.0 | 0.00 | 0.00 | 0.00 | 96 | 1015.3 |
| 20260508082309 | 9 | 143 | 0.0 | 0.0 | 0.00 | 0.00 | 0.00 | 96 | 1015.5 |
| 20260508081806 | 9 | 125 | 0.0 | 1.6 | 0.00 | 0.00 | 0.00 | 96 | 1015.4 |
| 20260508081303 | 9 | 125 | 0.0 | 1.6 | 0.00 | 0.00 | 0.00 | 96 | 1015.4 |
| 20260508080800 | 9 | 125 | 0.0 | 0.0 | 0.00 | 0.00 | 0.00 | 96 | 1015.6 |
| 20260508080258 | 9 | 125 | 1.6 | 1.6 | 0.00 | 0.00 | 0.00 | 96 | 1015.5 |
| 20260508075754 | 9 | 125 | 0.0 | 0.0 | 0.00 | 0.00 | 0.00 | 96 | 1015.6 |
| 20260508075251 | 9 | 123 | 0.0 | 0.0 | 0.00 | 0.00 | 0.00 | 96 | 1015.3 |
| 20260508074749 | 9 | 140 | 0.0 | 0.0 | 0.00 | 0.00 | 0.00 | 96 | 1015.4 |
| 20260508074246 | 9 | 140 | 0.0 | 0.0 | 0.00 | 0.00 | 0.00 | 96 | 1015.4 |
| 20260508073743 | 9 | 140 | 0.0 | 0.0 | 0.00 | 0.00 | 0.00 | 95 | 1015.4 |
| 20260508073241 | 10 | 140 | 0.0 | 0.0 | 0.00 | 0.00 | 0.00 | 95 | 1015.5 |
| 20260508072737 | 10 | 141 | 0.0 | 0.0 | 0.00 | 0.00 | 0.00 | 95 | 1015.5 |
| 20260508072234 | 10 | 141 | 0.0 | 0.0 | 0.00 | 0.00 | 0.00 | 95 | 1015.5 |
| 20260508071731 | 10 | 141 | 0.0 | 0.0 | 0.00 | 0.00 | 0.00 | 95 | 1015.4 |
| 20260508071229 | 10 | 141 | 0.0 | 0.0 | 0.00 | 0.00 | 0.00 | 95 | 1015.7 |
| 20260508070726 | 10 | 141 | 0.0 | 0.0 | 0.00 | 0.00 | 0.00 | 95 | 1015.5 |
| 20260508070225 | 10 | 141 | 0.0 | 0.0 | 0.00 | 0.00 | 0.00 | 95 | 1015.7 |
| 20260508065722 | 10 | 141 | 0.0 | 0.0 | 0.00 | 0.00 | 0.00 | 95 | 1015.4 |
| 20260508065220 | 10 | 141 | 0.0 | 1.6 | 0.00 | 0.00 | 0.00 | 95 | 1015.4 |
| 20260508064717 | 10 | 141 | 0.0 | 1.6 | 0.00 | 0.00 | 0.00 | 95 | 1015.5 |
| 20260508064215 | 10 | 141 | 0.0 | 0.0 | 0.00 | 0.00 | 0.00 | 94 | 1015.6 |
| 20260508063712 | 10 | 141 | 0.0 | 1.6 | 0.00 | 0.00 | 0.00 | 94 | 1015.5 |
| 20260508063210 | 10 | 141 | 0.0 | 0.0 | 0.00 | 0.00 | 0.00 | 94 | 1015.5 |
| 20260508062707 | 10 | 141 | 0.0 | 1.6 | 0.00 | 0.00 | 0.00 | 94 | 1015.4 |
| 20260508062204 | 10 | 141 | 0.0 | 1.6 | 0.00 | 0.00 | 0.00 | 94 | 1015.3 |
| 20260508061701 | 10 | 141 | 0.0 | 1.6 | 0.00 | 0.00 | 0.00 | 94 | 1015.3 |
| 20260508061159 | 10 | 117 | 0.0 | 1.6 | 0.00 | 0.00 | 0.00 | 93 | 1015.2 |
| 20260508060655 | 10 | 117 | 0.0 | 0.0 | 0.00 | 0.00 | 0.00 | 93 | 1015.3 |
| 20260508060153 | 10 | 117 | 0.0 | 0.0 | 0.00 | 0.00 | 0.00 | 92 | 1015.6 |
| 20260508055648 | 10 | 117 | 0.0 | 0.0 | 0.00 | 0.00 | 0.00 | 92 | 1015.4 |
| 20260508055145 | 10 | 117 | 0.0 | 0.0 | 0.00 | 0.00 | 0.00 | 91 | 1015.5 |
| 20260508054641 | 10 | 117 | 0.0 | 1.6 | 0.00 | 0.00 | 0.00 | 90 | 1015.5 |
| 20260508054139 | 11 | 116 | 0.0 | 0.0 | 0.00 | 0.00 | 0.00 | 89 | 1015.4 |
| 20260508053636 | 11 | 135 | 0.0 | 1.6 | 0.00 | 0.00 | 0.00 | 88 | 1015.5 |
| 20260508053134 | 11 | 206 | 0.0 | 1.6 | 0.00 | 0.00 | 0.00 | 86 | 1015.5 |
| 20260508052631 | 12 | 206 | 0.0 | 1.6 | 0.00 | 0.00 | 0.00 | 84 | 1015.7 |
| 20260508052128 | 12 | 207 | 0.0 | 1.6 | 0.00 | 0.00 | 0.00 | 82 | 1015.5 |
| 20260508051624 | 12 | 207 | 1.6 | 1.6 | 0.00 | 0.00 | 0.00 | 81 | 1015.5 |
| 20260508051119 | 12 | 207 | 1.6 | 3.2 | 0.00 | 0.00 | 0.00 | 81 | 1015.4 |
| 20260508050615 | 13 | 235 | 0.0 | 1.6 | 0.00 | 0.00 | 0.00 | 80 | 1015.4 |
| 20260508050114 | 13 | 200 | 1.6 | 4.8 | 0.00 | 0.00 | 0.00 | 79 | 1015.5 |
| 20260508045609 | 13 | 183 | 0.0 | 1.6 | 0.00 | 0.00 | 0.00 | 77 | 1015.5 |
| 20260508045107 | 13 | 212 | 1.6 | 3.2 | 0.00 | 0.00 | 0.00 | 76 | 1015.4 |
| 20260508044604 | 13 | 233 | 1.6 | 1.6 | 0.00 | 0.00 | 0.00 | 77 | 1015.3 |
| 20260508044100 | 13 | 239 | 3.2 | 4.8 | 0.00 | 0.00 | 0.00 | 76 | 1015.6 |
| 20260508043557 | 13 | 222 | 1.6 | 4.8 | 0.00 | 0.00 | 0.00 | 76 | 1015.2 |
| 20260508043054 | 13 | 203 | 1.6 | 3.2 | 0.00 | 0.00 | 0.00 | 77 | 1015.2 |
| 20260508042551 | 12 | 202 | 1.6 | 1.6 | 0.00 | 0.00 | 0.00 | 79 | 1015.2 |
| 20260508042048 | 12 | 202 | 1.6 | 3.2 | 0.00 | 0.00 | 0.00 | 81 | 1015.1 |
| 20260508041545 | 12 | 201 | 0.0 | 1.6 | 0.00 | 0.00 | 0.00 | 81 | 1015.1 |
| 20260508041041 | 12 | 201 | 0.0 | 1.6 | 0.00 | 0.00 | 0.00 | 82 | 1015.1 |
| 20260508040538 | 12 | 201 | 0.0 | 3.2 | 0.00 | 0.00 | 0.00 | 82 | 1015.2 |
| 20260508040036 | 12 | 191 | 1.6 | 1.6 | 0.00 | 2.62 | 2.62 | 83 | 1015.0 |
| 20260508035532 | 12 | 188 | 0.0 | 1.6 | 0.00 | 2.62 | 2.62 | 85 | 1015.0 |
| 20260508035029 | 12 | 188 | 0.0 | 1.6 | 0.00 | 2.62 | 2.62 | 87 | 1015.0 |
| 20260508034526 | 12 | 188 | 0.0 | 0.0 | 0.00 | 2.62 | 2.62 | 87 | 1015.0 |
| 20260508034023 | 12 | 188 | 0.0 | 0.0 | 0.00 | 2.62 | 2.62 | 86 | 1015.1 |
| 20260508033521 | 12 | 188 | 0.0 | 0.0 | 0.00 | 2.62 | 2.62 | 84 | 1014.9 |
| 20260508033019 | 12 | 188 | 0.0 | 0.0 | 0.00 | 2.62 | 2.62 | 83 | 1014.9 |
| 20260508032515 | 12 | 188 | 0.0 | 0.0 | 0.00 | 2.62 | 2.62 | 84 | 1014.9 |
| 20260508032013 | 12 | 188 | 0.0 | 0.0 | 0.00 | 2.62 | 2.62 | 83 | 1015.2 |
| 20260508031510 | 13 | 188 | 0.0 | 0.0 | 0.00 | 2.62 | 2.62 | 82 | 1014.9 |
| 20260508031005 | 13 | 188 | 0.0 | 0.0 | 0.00 | 2.62 | 2.62 | 80 | 1015.1 |
| 20260508030503 | 13 | 188 | 0.0 | 3.2 | 0.00 | 2.62 | 2.62 | 78 | 1015.1 |
| 20260508030001 | 13 | 244 | 3.2 | 3.2 | 0.00 | 2.62 | 2.62 | 78 | 1015.2 |
| 20260508025456 | 13 | 105 | 0.0 | 0.0 | 0.00 | 2.62 | 2.62 | 78 | 1014.9 |
| 20260508024954 | 14 | 103 | 0.0 | 1.6 | 0.00 | 2.62 | 2.62 | 77 | 1014.8 |
| 20260508024449 | 15 | 102 | 1.6 | 3.2 | 0.00 | 2.62 | 2.62 | 73 | 1014.8 |
| 20260508023946 | 15 | 152 | 0.0 | 1.6 | 0.00 | 2.62 | 2.62 | 70 | 1014.8 |
| 20260508023443 | 15 | 217 | 0.0 | 3.2 | 0.00 | 2.62 | 2.62 | 69 | 1014.7 |
| 20260508022941 | 15 | 146 | 0.0 | 3.2 | 0.00 | 2.62 | 2.62 | 68 | 1014.8 |